, TX

(GMT )
Ingleside

Weather History for KTFP - September, 2013

Change the Weather History Date:

Friday, September 13, 2013

  Actual Average Record
Temperature  
Mean Temperature 84 °F -  
Max Temperature 91 °F - - ()
Min Temperature 76 °F - - ()
Cooling Degree Days 18    
Growing Degree Days 34 (Base 50)    
Moisture  
Dew Point 75 °F    
Average Humidity 77    
Maximum Humidity 98    
Minimum Humidity 54    
Precipitation  
Precipitation 0.00 in - - ()
Sea Level Pressure  
Sea Level Pressure 29.87 in    
Wind  
Wind Speed 7 mph (NE)    
Max Wind Speed 17 mph    
Max Gust Speed 23 mph    
Visibility 10 miles    
Events Rain , Thunderstorm    
Averages and records for this station are not official NWS values.
T = Trace of Precipitation, MM = Missing Value Source: NWS Daily Summary

Daily Weather History Graph

Daily Weather History Graph

Search for Another Location

Airport or City:

Trip Planner

Search our weather history database for the weather conditions in past years. The results will help you decide how hot, cold, wet, or windy it might be!

Date:

Astronomy

Sep. 13, 2013 Rise Set
Actual Time 7:13 AM CDT 7:35 PM CDT
Civil Twilight 6:49 AM CDT 7:59 PM CDT
Nautical Twilight 6:22 AM CDT 8:26 PM CDT
Astronomical Twilight 5:54 AM CDT 8:54 PM CDT
Moon 3:05 PM CDT (9/13) 1:06 AM CDT (9/13)
Length of Visible Light 13h 09m
Length of Day
12h 22m
First Quarter, 61% of the Moon is Illuminated
Sep 13
First Quarter
Sep 19
Full
Sep 26
Last Quarter
Oct 4
New
Oct 11
First Quarter

Hourly Weather History & Observations

Time (CDT) Temp. Heat Index Dew Point Humidity Pressure Visibility Wind Dir Wind Speed Gust Speed Precip Events Conditions
12:15 AM 79.9 °F - 76.3 °F 89% 29.92 in 10.0 mi NNE 3.5 mph - N/A   Scattered Clouds
12:35 AM 79.2 °F - 76.5 °F 91% 29.92 in 10.0 mi Calm Calm - N/A Rain Light Rain
12:55 AM 79.3 °F - 77.0 °F 93% 29.92 in 10.0 mi Calm Calm - N/A   Scattered Clouds
1:15 AM 79.0 °F - 77.0 °F 94% 29.92 in 10.0 mi North 4.6 mph - N/A   Clear
1:35 AM 78.4 °F - 76.8 °F 95% 29.91 in 10.0 mi NNW 4.6 mph - N/A   Clear
1:55 AM 77.9 °F - 76.5 °F 95% 29.91 in 10.0 mi North 3.5 mph - N/A   Scattered Clouds
2:15 AM 77.2 °F - 74.3 °F 91% 29.91 in 10.0 mi Calm Calm - N/A   Scattered Clouds
2:35 AM 77.5 °F - 72.5 °F 84% 29.90 in 10.0 mi Calm Calm - N/A   Clear
2:55 AM 77.0 °F - 72.7 °F 86% 29.90 in 10.0 mi Calm Calm - N/A   Clear
3:15 AM 76.5 °F - 73.4 °F 90% 29.89 in 10.0 mi NW 4.6 mph - N/A   Clear
3:35 AM 76.5 °F - 74.7 °F 94% 29.89 in 10.0 mi North 4.6 mph - N/A   Clear
3:55 AM 77.0 °F - 75.6 °F 95% 29.88 in 7.0 mi NNW 4.6 mph - N/A   Clear
4:15 AM 76.8 °F - 75.7 °F 96% 29.88 in 7.0 mi North 4.6 mph - N/A   Clear
4:35 AM 76.8 °F - 75.9 °F 97% 29.88 in 7.0 mi North 5.8 mph - N/A   Clear
4:55 AM 76.8 °F - 75.9 °F 97% 29.88 in 7.0 mi North 3.5 mph - N/A   Clear
5:15 AM 76.5 °F - 75.6 °F 97% 29.89 in 7.0 mi North 5.8 mph - N/A   Clear
5:35 AM 76.1 °F - 75.4 °F 98% 29.89 in 7.0 mi North 5.8 mph - N/A   Clear
5:55 AM 76.3 °F - 75.6 °F 98% 29.89 in 7.0 mi North 5.8 mph - N/A   Clear
6:15 AM 76.5 °F - 75.7 °F 98% 29.89 in 7.0 mi North 4.6 mph - N/A   Clear
6:35 AM 76.8 °F - 76.3 °F 98% 29.89 in 10.0 mi North 5.8 mph - N/A   Clear
6:55 AM 77.9 °F - 77.2 °F 98% 29.89 in 10.0 mi North 8.1 mph - N/A   Clear
7:15 AM 77.9 °F - 77.2 °F 98% 29.89 in 10.0 mi NNE 5.8 mph - N/A   Clear
7:35 AM 77.9 °F - 77.0 °F 97% 29.89 in 10.0 mi NNE 6.9 mph - N/A   Clear
7:55 AM 78.4 °F - 77.5 °F 97% 29.89 in 10.0 mi NNE 5.8 mph - N/A   Clear
8:15 AM 79.2 °F - 77.9 °F 96% 29.89 in 10.0 mi NE 6.9 mph - N/A   Clear
8:35 AM 79.9 °F - 78.3 °F 95% 29.89 in 10.0 mi NE 9.2 mph - N/A   Clear
8:55 AM 81.3 °F 89.7 °F 78.4 °F 91% 29.90 in 10.0 mi NNE 12.7 mph - N/A   Clear
9:15 AM 82.9 °F 93.4 °F 78.6 °F 87% 29.90 in 10.0 mi NNE 11.5 mph - N/A   Clear
9:35 AM 83.7 °F 94.1 °F 78.1 °F 83% 29.90 in 10.0 mi NNE 11.5 mph - N/A   Clear
9:55 AM 83.8 °F 94.3 °F 77.7 °F 82% 29.91 in 10.0 mi North 12.7 mph - N/A   Scattered Clouds
10:15 AM 85.6 °F 95.9 °F 76.5 °F 74% 29.90 in 10.0 mi NNE 11.5 mph - N/A   Scattered Clouds
10:35 AM 84.6 °F 93.5 °F 75.9 °F 75% 29.91 in 10.0 mi NNE 12.7 mph 16.1 mph N/A   Mostly Cloudy
10:55 AM 85.6 °F 95.9 °F 76.5 °F 74% 29.91 in 10.0 mi NNE 12.7 mph - N/A   Overcast
11:15 AM 87.3 °F 98.2 °F 76.5 °F 70% 29.91 in 10.0 mi North 13.8 mph - N/A   Mostly Cloudy
11:35 AM 88.2 °F 98.0 °F 75.2 °F 65% 29.91 in 10.0 mi NE 11.5 mph - N/A   Mostly Cloudy
11:55 AM 87.8 °F 95.6 °F 73.2 °F 62% 29.90 in 10.0 mi ENE 12.7 mph - N/A   Mostly Cloudy
12:15 PM 88.7 °F 96.2 °F 72.9 °F 59% 29.89 in 10.0 mi ENE 13.8 mph - N/A   Scattered Clouds
12:35 PM 89.6 °F 97.7 °F 73.0 °F 58% 29.89 in 10.0 mi ENE 15.0 mph - N/A   Clear
12:55 PM 89.1 °F 97.5 °F 73.4 °F 60% 29.88 in 10.0 mi ENE 15.0 mph 19.6 mph N/A   Scattered Clouds
1:15 PM 88.9 °F 96.6 °F 72.9 °F 59% 29.87 in 10.0 mi East 12.7 mph 20.7 mph N/A   Scattered Clouds
1:35 PM 90.1 °F 98.3 °F 73.2 °F 57% 29.87 in 10.0 mi East 15.0 mph 21.9 mph N/A   Scattered Clouds
1:55 PM 90.7 °F 99.0 °F 72.9 °F 56% 29.86 in 10.0 mi East 13.8 mph - N/A   Clear
2:15 PM 90.7 °F 98.5 °F 72.7 °F 55% 29.85 in 10.0 mi East 15.0 mph 18.4 mph N/A   Clear
2:35 PM 91.0 °F 99.3 °F 72.7 °F 55% 29.84 in 10.0 mi ENE 15.0 mph 20.7 mph N/A   Clear
2:55 PM 91.4 °F 99.5 °F 72.7 °F 54% 29.84 in 10.0 mi ENE 16.1 mph 23.0 mph N/A   Scattered Clouds
3:15 PM 90.3 °F 98.2 °F 72.9 °F 56% 29.83 in 10.0 mi ENE 17.3 mph 21.9 mph N/A   Scattered Clouds
3:35 PM 90.7 °F 99.0 °F 73.0 °F 56% 29.82 in 10.0 mi ENE 16.1 mph 20.7 mph N/A   Scattered Clouds
3:55 PM 90.5 °F 99.2 °F 73.6 °F 57% 29.82 in 10.0 mi East 15.0 mph 21.9 mph N/A   Scattered Clouds
4:15 PM 90.0 °F 98.5 °F 73.6 °F 58% 29.82 in 10.0 mi East 16.1 mph 23.0 mph N/A   Scattered Clouds
4:35 PM 89.6 °F 98.2 °F 73.4 °F 59% 29.81 in 10.0 mi East 15.0 mph 21.9 mph N/A   Scattered Clouds
4:55 PM 90.0 °F 97.9 °F 72.9 °F 57% 29.81 in 10.0 mi East 17.3 mph 21.9 mph N/A   Scattered Clouds
5:15 PM 90.0 °F 97.9 °F 73.0 °F 57% 29.82 in 10.0 mi East 11.5 mph 21.9 mph N/A   Scattered Clouds
5:35 PM 89.1 °F 97.0 °F 73.0 °F 59% 29.82 in 10.0 mi East 15.0 mph - N/A   Clear
5:55 PM 88.2 °F 96.0 °F 73.0 °F 61% 29.82 in 10.0 mi ENE 12.7 mph 17.3 mph N/A   Clear
6:15 PM 88.3 °F 96.4 °F 73.4 °F 61% 29.81 in 10.0 mi East 15.0 mph - N/A   Clear
6:35 PM 88.2 °F 96.0 °F 73.4 °F 61% 29.80 in 10.0 mi ENE 15.0 mph 19.6 mph N/A   Clear
6:55 PM 87.3 °F 94.9 °F 73.4 °F 63% 29.81 in 10.0 mi East 11.5 mph - N/A Thunderstorm Clear
7:15 PM 86.2 °F 93.4 °F 73.0 °F 65% 29.81 in 10.0 mi East 10.4 mph 18.4 mph N/A   Clear
7:35 PM 85.3 °F 91.5 °F 72.3 °F 65% 29.81 in 10.0 mi East 11.5 mph 17.3 mph N/A   Clear
7:55 PM 84.4 °F 90.6 °F 72.9 °F 68% 29.81 in 10.0 mi East 10.4 mph - N/A   Clear
8:15 PM 84.2 °F 90.6 °F 73.0 °F 69% 29.82 in 10.0 mi East 10.4 mph - N/A   Clear
8:35 PM 84.0 °F 90.2 °F 72.9 °F 69% 29.82 in 10.0 mi East 12.7 mph - N/A   Clear
8:55 PM 83.7 °F 89.7 °F 72.9 °F 70% 29.83 in 10.0 mi East 11.5 mph - N/A   Clear
9:15 PM 83.5 °F 89.7 °F 73.2 °F 71% 29.83 in 10.0 mi East 8.1 mph - N/A   Clear
9:35 PM 82.8 °F 89.0 °F 73.8 °F 74% 29.83 in 10.0 mi East 8.1 mph - N/A   Clear
9:55 PM 82.6 °F 89.1 °F 74.3 °F 76% 29.84 in 10.0 mi ESE 9.2 mph - N/A   Clear
10:15 PM 82.6 °F 89.1 °F 74.5 °F 76% 29.84 in 10.0 mi ESE 9.2 mph - N/A   Clear
10:35 PM 82.6 °F 89.4 °F 74.7 °F 77% 29.84 in 10.0 mi East 6.9 mph - N/A   Clear
10:55 PM 82.0 °F 88.6 °F 74.8 °F 79% 29.84 in 10.0 mi East 6.9 mph - N/A   Clear
11:15 PM 81.9 °F 88.2 °F 74.8 °F 79% 29.84 in 10.0 mi East 6.9 mph - N/A   Clear
11:35 PM 81.5 °F 88.0 °F 75.4 °F 82% 29.84 in 10.0 mi East 5.8 mph - N/A   Clear
11:55 PM 81.3 °F 88.5 °F 76.8 °F 86% 29.84 in 10.0 mi East 5.8 mph - N/A   Clear